Huntingburg, IN

3:06 PM EDT on July 22, 2017 (GMT -0400)
Huntingburg

Weather History for KHNB - March, 2014

Change the Weather History Date:

Monday, March 10, 2014

  Actual Average Record
Temperature  
Mean Temperature 50 °F -  
Max Temperature 66 °F 48 °F 75 °F (2009)
Min Temperature 35 °F 31 °F 17 °F (2003)
Degree Days  
Heating Degree Days 14    
Moisture  
Dew Point 36 °F    
Average Humidity 63    
Maximum Humidity 87    
Minimum Humidity 35    
Precipitation  
Precipitation 0.00 in - - ()
Sea Level Pressure  
Sea Level Pressure 29.92 in    
Wind  
Wind Speed 11 mph (SSW)    
Max Wind Speed 22 mph    
Max Gust Speed 26 mph    
Visibility 8 miles    
Events      
Averages and records for this station are not official NWS values.
T = Trace of Precipitation, MM = Missing Value Source: NWS Daily Summary

Daily Weather History Graph

Daily Weather History Graph

Search for Another Location

Airport or City:

Trip Planner

Search our weather history database for the weather conditions in past years. The results will help you decide how hot, cold, wet, or windy it might be!

Date:

Astronomy

Mar. 10, 2014 Rise Set
Actual Time 8:06 AM EDT 7:50 PM EDT
Civil Twilight 7:40 AM EDT 8:16 PM EDT
Nautical Twilight 7:09 AM EDT 8:47 PM EDT
Astronomical Twilight 6:38 AM EDT 9:17 PM EDT
Moon 2:36 PM EDT (3/10) 4:14 AM EDT (3/10)
Length of Visible Light 12h 36m
Length of Day
11h 43m
Waxing Gibbous, 70% of the Moon is Illuminated
Mar 10
Waxing Gibbous
Mar 16
Full
Mar 23
Last Quarter
Mar 30
New
Apr 7
First Quarter

Hourly Weather History & Observations

Time (EDT) Temp. Windchill Dew Point Humidity Pressure Visibility Wind Dir Wind Speed Gust Speed Precip Events Conditions
12:15 AM 37.4 °F 31.4 °F 28.4 °F 70% 30.07 in 10.0 mi SW 8.1 mph - N/A   Clear
12:35 AM 37.4 °F 31.4 °F 28.4 °F 70% 30.07 in 10.0 mi SSW 8.1 mph - N/A   Clear
12:55 AM 37.4 °F 30.8 °F 28.4 °F 70% 30.06 in 10.0 mi SSW 9.2 mph - N/A   Clear
1:15 AM 37.4 °F 30.8 °F 28.4 °F 70% 30.06 in 10.0 mi SSW 9.2 mph - N/A   Clear
1:35 AM 37.4 °F 30.3 °F 28.4 °F 70% 30.05 in 10.0 mi SSW 10.4 mph - N/A   Clear
1:55 AM 37.4 °F 30.3 °F 28.4 °F 70% 30.05 in 10.0 mi SW 10.4 mph - N/A   Clear
2:15 AM 37.4 °F 30.8 °F 30.2 °F 75% 30.04 in 10.0 mi SSW 9.2 mph - N/A   Clear
2:35 AM 37.4 °F 30.8 °F 28.4 °F 70% 30.05 in 10.0 mi SSW 9.2 mph - N/A   Clear
2:55 AM 37.4 °F 31.4 °F 30.2 °F 75% 30.05 in 10.0 mi SSW 8.1 mph - N/A   Clear
3:15 AM 35.6 °F 28.6 °F 30.2 °F 81% 30.05 in 10.0 mi SSW 9.2 mph - N/A   Clear
3:35 AM 37.4 °F 31.4 °F 28.4 °F 70% 30.05 in 10.0 mi SSW 8.1 mph - N/A   Clear
3:55 AM 35.6 °F 29.2 °F 30.2 °F 81% 30.03 in 9.0 mi South 8.1 mph - N/A   Clear
4:15 AM 35.6 °F 29.2 °F 30.2 °F 81% 30.02 in 7.0 mi South 8.1 mph - N/A   Clear
4:35 AM 35.6 °F 29.9 °F 30.2 °F 81% 30.02 in 7.0 mi SSW 6.9 mph - N/A   Clear
4:55 AM 35.6 °F 30.7 °F 30.2 °F 81% 30.02 in 6.0 mi SSW 5.8 mph - N/A   Clear
5:15 AM 35.6 °F 29.9 °F 30.2 °F 81% 30.01 in 5.0 mi SSW 6.9 mph - N/A   Clear
5:35 AM 35.6 °F 30.7 °F 30.2 °F 81% 30.01 in 5.0 mi SSW 5.8 mph - N/A   Clear
5:55 AM 35.6 °F 29.9 °F 30.2 °F 81% 30.00 in 5.0 mi SSW 6.9 mph - N/A   Clear
6:15 AM 35.6 °F 29.2 °F 30.2 °F 81% 29.99 in 5.0 mi SSW 8.1 mph - N/A   Clear
6:35 AM 35.6 °F 28.0 °F 30.2 °F 81% 29.98 in 5.0 mi South 10.4 mph - N/A   Clear
6:55 AM 35.6 °F 28.0 °F 30.2 °F 81% 29.99 in 4.0 mi SSW 10.4 mph - N/A   Clear
7:15 AM 35.6 °F 28.6 °F 32.0 °F 87% 29.98 in 4.0 mi SSW 9.2 mph - N/A   Clear
7:35 AM 35.6 °F 28.6 °F 32.0 °F 87% 29.98 in 4.0 mi SSW 9.2 mph - N/A   Clear
7:55 AM 35.6 °F 29.2 °F 32.0 °F 87% 29.98 in 4.0 mi SSW 8.1 mph - N/A   Clear
8:15 AM 35.6 °F 29.9 °F 32.0 °F 87% 29.98 in 3.0 mi SSW 6.9 mph - N/A   Clear
8:35 AM 35.6 °F 28.0 °F 32.0 °F 87% 29.97 in 2.5 mi South 10.4 mph - N/A   Clear
8:55 AM 37.4 °F 30.8 °F 33.8 °F 87% 29.98 in 2.5 mi South 9.2 mph - N/A   Clear
9:15 AM 37.4 °F 30.3 °F 33.8 °F 87% 29.98 in 3.0 mi SSW 10.4 mph - N/A   Clear
9:35 AM 39.2 °F 31.2 °F 35.6 °F 87% 29.97 in 3.0 mi SSW 13.8 mph 18.4 mph N/A   Clear
9:55 AM 41.0 °F 34.3 °F 35.6 °F 81% 29.97 in 4.0 mi SSW 11.5 mph - N/A   Clear
10:15 AM 42.8 °F 35.4 °F 37.4 °F 81% 29.97 in 4.0 mi SW 15.0 mph 18.4 mph N/A   Clear
10:35 AM 44.6 °F 38.4 °F 37.4 °F 76% 29.96 in 5.0 mi SW 12.7 mph 20.7 mph N/A   Clear
10:55 AM 46.4 °F 41.5 °F 39.2 °F 76% 29.97 in 5.0 mi SW 10.4 mph - N/A   Clear
11:15 AM 46.4 °F 41.1 °F 39.2 °F 76% 29.97 in 6.0 mi SW 11.5 mph - N/A   Clear
11:35 AM 48.2 °F - 41.0 °F 76% 29.96 in 7.0 mi SW 10.4 mph - N/A   Clear
11:55 AM 51.8 °F - 41.0 °F 67% 29.96 in 8.0 mi SW 12.7 mph - N/A   Clear
12:15 PM 53.6 °F - 41.0 °F 62% 29.95 in 8.0 mi SW 13.8 mph 19.6 mph N/A   Clear
12:35 PM 53.6 °F - 42.8 °F 67% 29.95 in 9.0 mi SW 12.7 mph - N/A   Clear
12:55 PM 55.4 °F - 41.0 °F 58% 29.94 in 10.0 mi SW 9.2 mph - N/A   Clear
1:15 PM 57.2 °F - 41.0 °F 55% 29.93 in 10.0 mi SW 12.7 mph 19.6 mph N/A   Clear
1:35 PM 59.0 °F - 41.0 °F 51% 29.92 in 10.0 mi SW 16.1 mph 19.6 mph N/A   Clear
1:55 PM 60.8 °F - 41.0 °F 48% 29.91 in 10.0 mi SSW 17.3 mph - N/A   Clear
2:15 PM 60.8 °F - 42.8 °F 52% 29.90 in 10.0 mi SW 17.3 mph - N/A   Clear
2:35 PM 62.6 °F - 42.8 °F 48% 29.89 in 10.0 mi SW 11.5 mph - N/A   Clear
2:55 PM 62.6 °F - 42.8 °F 48% 29.87 in 10.0 mi SW 17.3 mph - N/A   Clear
3:15 PM 64.4 °F - 42.8 °F 45% 29.86 in 10.0 mi WSW 15.0 mph - N/A   Clear
3:35 PM 64.4 °F - 42.8 °F 45% 29.85 in 10.0 mi SSW 16.1 mph - N/A   Clear
3:55 PM 66.2 °F - 42.8 °F 43% 29.84 in 10.0 mi SW 17.3 mph 25.3 mph N/A   Clear
4:15 PM 66.2 °F - 41.0 °F 40% 29.83 in 10.0 mi SW 18.4 mph 25.3 mph N/A   Clear
4:35 PM 66.2 °F - 37.4 °F 35% 29.82 in 10.0 mi SW 20.7 mph - N/A   Clear
4:55 PM 66.2 °F - 37.4 °F 35% 29.82 in 10.0 mi SW 16.1 mph 21.9 mph N/A   Clear
5:15 PM 66.2 °F - 37.4 °F 35% 29.81 in 10.0 mi SW 16.1 mph 23.0 mph N/A   Clear
5:35 PM 66.2 °F - 37.4 °F 35% 29.80 in 10.0 mi SW 16.1 mph 25.3 mph N/A   Clear
5:55 PM 66.2 °F - 37.4 °F 35% 29.79 in 10.0 mi SW 21.9 mph 26.5 mph N/A   Clear
6:15 PM 64.4 °F - 37.4 °F 37% 29.79 in 10.0 mi SSW 15.0 mph 24.2 mph N/A   Clear
6:35 PM 64.4 °F - 37.4 °F 37% 29.79 in 10.0 mi SSW 16.1 mph 20.7 mph N/A   Clear
6:55 PM 64.4 °F - 37.4 °F 37% 29.79 in 10.0 mi SSW 15.0 mph - N/A   Clear
7:15 PM 62.6 °F - 37.4 °F 39% 29.79 in 10.0 mi SSW 13.8 mph - N/A   Clear
7:35 PM 62.6 °F - 37.4 °F 39% 29.79 in 10.0 mi SW 13.8 mph - N/A   Clear
7:55 PM 59.0 °F - 37.4 °F 45% 29.80 in 10.0 mi SSW 13.8 mph - N/A   Clear
8:15 PM 55.4 °F - 37.4 °F 51% 29.80 in 10.0 mi SSW 10.4 mph - N/A   Clear
8:35 PM 55.4 °F - 37.4 °F 51% 29.80 in 10.0 mi SW 9.2 mph - N/A   Clear
8:55 PM 53.6 °F - 37.4 °F 54% 29.80 in 10.0 mi SSW 9.2 mph - N/A   Clear
9:15 PM 55.4 °F - 37.4 °F 51% 29.80 in 10.0 mi SSW 11.5 mph - N/A   Clear
9:35 PM 55.4 °F - 37.4 °F 51% 29.80 in 10.0 mi SSW 10.4 mph - N/A   Clear
9:55 PM 55.4 °F - 39.2 °F 54% 29.80 in 10.0 mi SSW 11.5 mph - N/A   Clear
10:15 PM 53.6 °F - 39.2 °F 58% 29.81 in 10.0 mi SW 10.4 mph - N/A   Clear
10:35 PM 53.6 °F - 39.2 °F 58% 29.81 in 10.0 mi SW 12.7 mph - N/A   Clear
10:55 PM 53.6 °F - 39.2 °F 58% 29.81 in 10.0 mi SW 11.5 mph - N/A   Clear
11:15 PM 53.6 °F - 39.2 °F 58% 29.80 in 10.0 mi SW 13.8 mph - N/A   Clear
11:35 PM 51.8 °F - 39.2 °F 62% 29.80 in 10.0 mi SSW 13.8 mph - N/A   Clear
11:55 PM 51.8 °F - 39.2 °F 62% 29.80 in 10.0 mi SW 12.7 mph - N/A   Clear